User: anonymous
Location: Columbia
(38.9520°N, 92.3340°W)
Time: 16:04:31
(UTC-05:00)
Language:

Cosmos 2100 Rocket - Orbit

View from above orbital plane
View from above orbital plane
View from above satellite
View from above satellite

Ground track
Ground track

The orbit data is extracted from the following two-line orbital elements,

1 20805U 90083B   14112.41442528  .00000100  00000-0  87950-4 0  7446
2 20805 082.9396 195.9581 0030431 013.4550 035.7741 13.75708321185032
Epoch (UTC): 22 April 2014 09:56:46
Eccentricity: 0.0030431
inclination: 82.9396°
perigee height: 957 km
apogee height: 1001 km
right ascension of ascending node: 195.9581°
argument of perigee: 13.4550°
revolutions per day: 13.75708321
mean anomaly at epoch: 35.7741°
orbit number at epoch: 18503

The dashed part of the orbit path shows where the satellite is in the earth's shadow,  

DLR